Location: Canazei
(46.4667°N, 11.7667°E)
Time: 04:39:01
(UTC+00:00)

ATLAS 2AS CENTAUR R/B - Pass Details

Date: 21 April 2021
Orbit: 949 x 1263 km, 63.7° (Epoch: 07 May)

Event Time Altitude Azimuth Distance (km) Brightness Sun altitude
Rises 02:00:20 0° 320° (NW) 4,121 5.8 -20.5°
Reaches altitude 10° 02:03:11 10° 323° (NW) 3,115 5.2 -20.2°
Maximum altitude 02:10:38 73° 48° (NE) 1,166 3.0 -19.2°
Drops below altitude 10° 02:17:28 10° 134° (SE) 2,870 5.0 -18.4°
Sets 02:20:00 0° 136° (SE) 3,779 5.6 -18.0°
